Tracking 31027 objects as of 19-Jul-2025
HD Live streaming from Space Station
objects crossing your sky now

STARLINK-2092

Track STARLINK-2092 now!
10-day predictions
STARLINK-2092 is classified as:


NORAD ID: 47373
Int'l Code: 2021-005AA
Perigee: 553.6 km
Apogee: 555.1 km
Inclination: 53.1 °
Period: 95.6 minutes
Semi major axis: 6925 km
RCS: Unknown
Launch date: January 20, 2021
Source: United States (US)
Launch site: AIR FORCE EASTERN TEST RANGE (AFETR)
Your satellite tracking list
CZ-4C DEB
Track 1 satellite(s)




NASA's NSSDC Master Catalog

Two Line Element Set (TLE):
1 47373U 21005AA  25199.81965945 -.00001142  00000-0 -57792-4 0  9999
2 47373  53.0529  31.5020 0001079  87.0352 273.0760 15.06398820247799
Source of the keplerian elements: AFSPC